Preview of NWS' New Version of Forecast
This preview is not operational and should not be used for support decisions.

Regional Weather Roundup (RWR)

Issued by National Weather Service (NWS)

                            
000
ASUS42 KTBW 212319
RWRFL 
FLORIDA REGIONAL WEATHER ROUNDUP
NATIONAL WEATHER SERVICE TAMPA BAY RUSKIN FL
700 PM EDT SUN JUL 21 2019

NOTE: "FAIR" INDICATES FEW OR NO CLOUDS BELOW 12,000 FEET WITH NO
SIGNIFICANT WEATHER AND/OR OBSTRUCTIONS TO VISIBILITY.

FLZ001>010-012>015-112-114-115-220000-
PANHANDLE FLORIDA
  
CITY           SKY/WX    TMP DP  RH WIND       PRES   REMARKS
PENSACOLA      FAIR      86  72  62 SW10      30.01R                  
PENSACOLA NAS  FAIR      83  73  72 SW12      30.01R                  
MILTON NAS     FAIR      86  70  58 S8          N/A                   
CRESTVIEW      FAIR      87  72  60 SW6       30.01S                  
DUKE FIELD     FAIR      88  71  57 S10       30.00S                  
VALPARAISO     FAIR      86  73  64 SW10      30.00S                  
MARY ESTHER    MOSUNNY   85  74  70 SW7       30.00R                  
TRI COUNTY     FAIR      80  76  87 CALM      30.01                   
PANAMA CITY    FAIR      84  72  67 SW7       29.99F                  
TYNDALL AFB    FAIR      86  73  65 SW7       29.99S                  
APALACHICOLA   FAIR      86  74  67 S7        30.00S                  

STATION/POSITION SKY/WX   TEMP    WIND        PRES    WAVE   SWELL
                          AIR SEA DIR/SP/G            HT/PER HT/PER
                          (F)     (DEG/KT/KT) (MB)    (FT/S) (FT/S)
30.1N   87.6W              81 86  230/ 10/ 12 1016.5
29.2N   88.2W              81 85  210/  6/ 10 1016.5
28.8N   86.0W                 86  280/  6/  8 1016.3R   1/ 5   2/ 5
PANAMA CITY BEAC                  210/  6/  8   N/A
TOWER C                    83     170/  6/  7 1016.8R
28.5N   84.5W              82     120/  2/  4 1017.4

$$
FLZ011-016>038-118-127-128-134-139-239-220000-
NORTH FLORIDA
  
CITY           SKY/WX    TMP DP  RH WIND       PRES   REMARKS
MARIANNA       FAIR      84  74  71 W7        30.00S                  
TALLAHASSEE    FAIR      84  72  67 NW5       30.01S                  
PERRY          FAIR      84  74  71 SE9       30.05R                  
LIVE OAK       SUNNY     75  75 100 CALM      30.05R                  
CROSS CITY     FAIR      77  70  81 SE14G25   30.09R                  
LAKE CITY      FAIR      81  72  74 S5        30.07R THUNDER          
GAINESVILLE    TSTM      72  69  90 SW7       30.12R FOG              
WILLISTON      CLOUDY    72  70  95 W3        30.10F                  
PALATKA        FAIR      77  72  83 SW5       30.08R                  
MAYPORT NAS    FAIR      84  74  71 S13       30.05R                  
JACKSONVILLE   PTSUNNY   83  71  67 SW14      30.06R                  
JAX NAS        PTSUNNY   78  68  71 W10       30.06R                  
JAX CECIL      PTSUNNY   75  72  88 VRB5      30.07R                  
FERNANDINA BEA FAIR      84  76  77 S12G20    30.05R                  
ST AUGUSTINE   PTSUNNY   84  75  74 S9        30.06R                  
PALM COAST     SUNNY     79  73  83 CALM      30.06R                  

STATION/POSITION SKY/WX   TEMP    WIND        PRES    WAVE   SWELL
                          AIR SEA DIR/SP/G            HT/PER HT/PER
                          (F)     (DEG/KT/KT) (MB)    (FT/S) (FT/S)
SHELL POINT      NOT AVBL
KEATON BEACH               86      90/  5/  7 1017.8R
CEDAR KEY                  74     140/ 25/ 29 1019.8R
FERNANDINA                 89 88  150/ 13/ 19 1017.6R
30.7N   81.3W                 84                N/A     2/ 8
MAYPORT                    83 85  150/  5/ 11 1017.6R
31.4N   80.9W              83 84  160/ 16/ 17 1016.3R   2/ 3   2/ 8
ST AUGUSTINE               82 81  160/ 11/ 12 1018.0R

$$
FLZ040-043>046-052-053-057-058-063-144-220000-
INTERIOR CENTRAL FLORIDA
  
CITY           SKY/WX    TMP DP  RH WIND       PRES   REMARKS
OCALA          TSTM      72  72 100 SW6       30.10R                  
LEESBURG       PTSUNNY   74  71  91 SW3       30.09F                  
SANFORD        FAIR      76  71  85 W3        30.07R                  
ORLANDO EXEC   PTSUNNY   77  72  84 W9        30.07R                  
ORLANDO INTL   PTSUNNY   79  72  79 W9        30.07R                  
KISSIMMEE      CLOUDY    76  71  85 NW9       30.09R                  
WINTER HAVEN   LGT RAIN  75  72  90 NW7       30.09R                  
LAKELAND       RAIN      73  72  94 CALM      30.08F                  
BARTOW         LGT RAIN  75  73  94 NW5       30.07R                  
SEBRING        FAIR      78  72  79 NW9       30.06S                  
OKEECHOBEE     CLOUDY    77  66  69 NW5       30.05S                  

$$
FLZ041-047-054-059-064-141-147-220000-
EAST CENTRAL FLORIDA
  
CITY           SKY/WX    TMP DP  RH WIND       PRES   REMARKS
ORMOND BEACH   SUNNY     79  77  94 SW9       30.05S                  
DAYTONA BEACH  PTSUNNY   79  75  87 CALM      30.05S                  
DELAND         FAIR      75  72  88 SW6       30.06S                  
JFK SPACE CTR  PTSUNNY   84  67  57 S5        30.05R                  
TITUSVILLE     PTSUNNY   88  75  66 S6        30.06R HX  97           
CAPE CANAVERAL SUNNY     84  59  42 S6        30.05R                  
PATRICK AFB    FAIR      84  79  85 SE9       30.05R HX  97           
MELBOURNE      FAIR      85  76  74 SE6       30.05R                  
VERO BEACH     FAIR      85  72  65 SE9       30.05R                  
FT PIERCE      FAIR      85  71  63 SE10      30.04R                  
STUART         MOSUNNY   84  73  70 SE8       30.06R                  

STATION/POSITION SKY/WX   TEMP    WIND        PRES    WAVE   SWELL
                          AIR SEA DIR/SP/G            HT/PER HT/PER
                          (F)     (DEG/KT/KT) (MB)    (FT/S) (FT/S)
28.5N   80.2W              84 85  180/ 10/ 12 1017.6R   1/ 8   2/ 8
28.9N   78.5W              85 87  120/  6/  8   N/A     2/ 8   2/ 8
TRIDENT PIER               83 85  150/  8/  9 1018.8R
28.4N   80.5W                 83                N/A     1/ 6
27.5N   80.2W                 83                N/A     1/ 8

$$
FLZ050-056-061-142-242-148-248-149-249-151-251-155-255-
160-260-220000-
WEST CENTRAL FLORIDA
  
CITY           SKY/WX    TMP DP  RH WIND       PRES   REMARKS
CRYSTAL RIVER  FAIR      72  70  94 CALM      30.10F                  
INVERNESS      CLOUDY    72  72 100 CALM      30.10R                  
BROOKSVILLE    LGT RAIN  72  69  90 N6        30.10S                  
CLEARWATER AIR FAIR      79  70  73 SE6       30.05R                  
ST PETE CLEARW FAIR      77  74  90 SE8       30.05S                  
TAMPA INTL     LGT RAIN  79  69  71 E5        30.07S                  
TAMPA EXEC     FAIR      73  72  94 CALM      30.08R                  
PLANT CITY     LGT RAIN N/A N/A N/A MISG      30.09S                  
MACDILL AFB    FAIR      76  72  87 E8        30.05F                  
PETER O KNIGHT LGT RAIN N/A N/A N/A E6        30.07F                  
ST PETERSBURG  FAIR      79  72  79 E12       30.05S                  
SARASOTA       FAIR      77  72  84 NE8       30.03R                  
VENICE         FAIR      84  68  58 E13       30.04S                  

STATION/POSITION SKY/WX   TEMP    WIND        PRES    WAVE   SWELL
                          AIR SEA DIR/SP/G            HT/PER HT/PER
                          (F)     (DEG/KT/KT) (MB)    (FT/S) (FT/S)
27.3N   84.2W                 87                N/A     2/ 5
CLEARWATER BEACH                  120/  5/  9   N/A
MIDDLE TAMPA BAY           76     100/ 11/ 16 1018.2R
VENICE                     81 86   80/  9/ 12 1017.2F

$$
FLZ066-069-070-075>078-162-262-165-265-220000-
SOUTHWEST FLORIDA AND KEYS
  
CITY           SKY/WX    TMP DP  RH WIND       PRES   REMARKS
PUNTA GORDA    PTSUNNY   77  74  90 VRB7      30.08R                  
FT MYERS       RAIN      74  71  91 E7        30.07S FOG              
SOUTHWEST INTL TSTM      74  71  91 SE3       30.08S FOG              
MARCO ISLAND   LGT RAIN  75  73  94 MISG      30.07R                  
IMMOKALEE      RAIN      73  73 100 N5        30.08R                  
MARATHON       FAIR      87  75  67 CALM      30.01R HX  96           
KEY WEST NAS   PTSUNNY   88  70  55 SE8       30.01R                  
KEY WEST INTL  LGT RAIN  81  77  88 CALM      30.01S                  

STATION/POSITION SKY/WX   TEMP    WIND        PRES    WAVE   SWELL
                          AIR SEA DIR/SP/G            HT/PER HT/PER
                          (F)     (DEG/KT/KT) (MB)    (FT/S) (FT/S)
NAPLES                     77 88              1017.7R
26.0N   85.6W              85 87   30/  2/  4 1016.2R   2/ 5   2/ 5
DRY TORTUGAS               85     110/  8/  8 1016.3R
SAND KEY                   82      50/  7/  9 1014.9
SOMBRERO KEY               85     100/  8/ 11 1016.6
LONG KEY                   86                 1015.9

$$
FLZ067-068-071>074-168-172>174-220000-
SOUTHEAST FLORIDA 
  
CITY           SKY/WX    TMP DP  RH WIND       PRES   REMARKS
W PALM BEACH   PTSUNNY   86  73  65 SE8       30.05R                  
BOCA RATON     SUNNY     86  75  70 SE5       30.04R HX  95           
FT LAUDER-EXEC FAIR      85  72  65 SE8       30.04R                  
FT LAUDERDALE  PTSUNNY   85  73  67 SE7       30.03R                  
POMPANO BEACH  FAIR      86  72  62 S6        30.04R                  
PEMBROKE PINES FAIR      87  72  60 S5        30.05R                  
OPA LOCKA      FAIR      79  72  79 E7        30.04R                  
MIAMI          PTSUNNY   86  71  60 S3        30.04R                  
WEST KENDALL   FAIR      86  75  69 E7        30.04R HX  95           
HOMESTEAD      PTSUNNY   86  76  70 E3        30.02R HX  96           

STATION/POSITION SKY/WX   TEMP    WIND        PRES    WAVE   SWELL
                          AIR SEA DIR/SP/G            HT/PER HT/PER
                          (F)     (DEG/KT/KT) (MB)    (FT/S) (FT/S)
PORT EVERGLADES            86     130/  6/  8 1016.7
VIRGINIA KEY               86 89   80/  6/  8 1016.3
LAKE WORTH                 83 85  160/  7/  9 1018.5R
FOWEY ROCKS                84 85   80/  6/  7 1017.3R
SETTLEMENT POINT           85     170/  3/  5 1017.4R

$$